Simultaneous Nadir Overpasses (SNOs) Predictions

Prediction of SNOs between AQUA and METOP-C Satellite Orbit:

Table of predicted SNOs for the next 14.0 days since TLE Epoch: 12/10/2022
Index Date (AQUA) Time (AQUA) Lat,Lon (AQUA) SZA (AQUA ) Date (METOP-C) Time (METOP-C) Lat,Lon (METOP-C) SZA (METOP-C ) Distance(km) Time Diff (sec)
1 12/11/2022 15:05:28 73.71, -50.32 96.66 12/11/2022 15:04:19 73.66, -52.14 96.64 57.40 69
2 12/11/2022 15:55:01 -74.13, 116.39 82.91 12/11/2022 15:54:50 -74.16, 116.39 82.88 3.26 11
3 12/11/2022 16:44:29 74.21, -76.15 97.17 12/11/2022 16:45:30 74.18, -76.21 97.15 3.04 61
4 12/14/2022 09:49:09 -73.69,-151.18 83.17 12/14/2022 09:48:00 -73.67,-153.04 83.15 58.07 69
5 12/14/2022 10:38:44 74.14, 15.45 97.30 12/14/2022 10:38:31 74.15, 15.44 97.31 0.98 13
6 12/14/2022 11:28:10 -74.19,-177.01 82.66 12/14/2022 11:29:11 -74.19,-177.11 82.65 3.13 61
7 12/17/2022 04:32:51 73.64, 108.02 96.92 12/17/2022 04:31:43 73.61, 105.89 96.93 66.93 68
8 12/17/2022 05:22:26 -74.15, -85.48 82.56 12/17/2022 05:22:13 -74.15, -85.48 82.56 0.72 13
9 12/17/2022 06:11:54 74.24, 81.95 97.54 12/17/2022 06:12:52 74.23, 82.06 97.53 3.69 58
10 12/19/2022 23:16:33 -73.69, 7.01 82.95 12/19/2022 23:15:24 -73.65, 5.07 82.96 60.98 69
11 12/20/2022 00:06:08 74.15, 173.62 97.52 12/20/2022 00:05:55 74.13, 173.56 97.51 3.22 13
12 12/20/2022 00:55:35 -74.24, -18.94 82.39 12/20/2022 00:56:34 -74.22, -18.88 82.41 3.01 59
13 12/22/2022 18:00:13 73.68, -93.86 97.05 12/22/2022 17:59:05 73.62, -95.91 97.04 64.65 68
14 12/22/2022 18:49:47 -74.13, 72.77 82.48 12/22/2022 18:49:35 -74.16, 72.71 82.45 3.24 12
15 12/22/2022 19:39:15 74.23,-119.82 97.63 12/22/2022 19:40:14 74.24,-119.74 97.63 2.77 59



Historial Predications of SNOs between AQUA and METOP-C
